Погода в Чкаловском

Россия / Кемеровская область (Кузбасс)     54°41′17″N   85°57′19″E
темп.,
°C
ветер,
м/с
пор.,
м/с
влажн.,
%
обл.,
%
осадки,
мм/ч
давл.,
гПа
погр.,
м
11 апреля, вс
вс1101:00−2св410895 0.0 1040173
04:00−2св38885 0.0 1040117
07:00−4с22935 0.0 104142
10:00+1с348099 0.0 1041219
13:00+3с23755 0.0 1040354
16:00+4ссз237354 0.0 1039360
19:00+2сз349389 0.0 103994
22:000сз2392100 0.0 103939
12 апреля, пн
пн1201:000зсз229292 0.0 103711
04:00+1зсз1191100 0.0 103618
07:00+1зюз2287100 0.0 103620
10:00+4юз2376100 0.0 1034230
13:00+8юз4663100 0.0 1032565
16:00+9зюз4766100 0.0 1030714
19:00+7юз4877100 0.0 1029185
22:00+3зюз3884100 0.0 1029191
13 апреля, вт
вт1301:00+2з4878100 0.0 1028278
04:00+1зсз4997100 1.4 1028554
07:00+2ссз3898100 1.5 1030345
10:00+4ссз468137 0.0 1031795
13:00+6сз56605 0.0 10311075
16:00+7зсз6852100 0.0 10311886
19:00+6зсз585887 0.1 1031900
22:00+3з497699 0.1 1032259
14 апреля, ср
ср1401:00+3з4108085 0.2 1032334
04:00+2з51184100 0.0 1031335
07:00+2зюз51186100 0.0 1031381
10:00+5з697388 0.0 1031655
13:00+7з7106297 0.0 10301233
16:00+8з7956100 0.0 10281160
19:00+8зюз51062100 0.0 1026483
22:00+6зюз51168100 0.0 1025395
15 апреля, чт
чт1501:00+5зюз51276100 0.1 1023452
04:00+5зюз51184100 1.0 1021434
07:00+5зюз4990100 1.8 1021316
10:00+5зюз3791100 1.3 1021265
13:00+7юз3684100 2.1 1020374
16:00+9юз378280 0.1 1019404
19:00+11юз487795 0.1 1018225
22:00+9юз3783100 0.0 1018127